Location: Plzen
(49.7500°N, 13.3667°E)
Time: 01:52:09
(UTC+01:00)

ISS - Visible Passes

Search period start: 21 November 2017 00:00
Search period end: 01 December 2017 00:00
Orbit: 402 x 407 km, 51.6° (Epoch: 21 November)

Date Brightness Start Highest point End Pass type
(mag) Time Alt. Az. Time Alt. Az. Time Alt. Az.
28 Nov -1.9 18:16:12 10° SSW 18:17:53 20° S 18:17:53 20° S visible
29 Nov -1.6 17:24:52 10° S 17:26:40 14° SE 17:27:47 12° ESE visible
29 Nov -1.2 18:59:24 10° WSW 19:00:27 19° SW 19:00:27 19° SW visible
30 Nov -3.1 18:07:14 10° SW 18:10:17 40° SSE 18:10:17 40° SSE visible
